Theta_e
362 362 363 363 363 364 362 361 363 364 364 360 361 360 359 359 360 361 361 361 361 360 359 358 359 355 352 350 350 351 353 354 355 354 354 356 363 361 360 358 358 358 356 356 355 354 355 355 356 358 358 357 357 357 357 357 357 357 356 356 356 356 356 356 357 357 358 357 357 357 356 355 355 354 354 354 354 354 354 354 354 354 354 354 354
362 362 362 364 364 366 365 362 361 363 363 361 360 360 359 359 361 362 360 361 360 360 357 353 350 349 350 349 348 347 349 349 351 353 354 353 360 362 358 358 359 358 356 355 356 357 356 356 357 357 358 358 358 359 358 358 357 358 357 357 356 356 357 356 356 356 357 358 357 357 357 356 356 355 355 354 354 354 355 355 355 355 355 354 354
363 364 365 363 365 365 364 363 360 359 363 361 363 362 362 361 362 360 360 360 357 357 354 351 350 348 348 347 347 348 349 350 347 349 348 351 357 362 361 359 359 358 357 356 355 357 357 357 357 358 358 357 357 357 358 358 358 358 358 358 358 356 356 356 356 356 356 357 357 357 357 357 356 356 355 355 355 355 355 355 355 355 355 355 355
366 367 365 364 363 362 362 362 360 360 362 362 363 364 363 364 364 363 361 359 358 354 353 348 348 346 348 347 348 347 346 347 344 344 347 350 352 357 362 363 358 359 357 357 357 356 356 357 357 357 357 358 358 358 358 359 356 357 358 357 358 358 356 356 355 356 356 357 357 357 357 357 357 357 357 356 356 355 355 355 355 355 355 355 355
367 369 367 365 364 365 363 362 362 364 363 365 365 365 364 362 362 362 360 361 352 351 352 348 347 347 347 348 348 348 349 348 348 346 345 347 348 349 354 359 363 357 359 358 359 358 357 357 357 357 357 357 358 357 357 358 358 356 357 357 356 357 355 356 355 356 355 356 357 357 357 357 357 357 357 357 357 357 356 356 356 355 355 355 355
369 369 368 366 366 365 365 362 363 366 365 366 363 363 361 360 358 359 354 349 347 348 346 347 345 346 347 348 348 348 349 347 345 346 346 346 347 350 349 350 352 357 364 358 358 357 358 358 357 357 357 357 358 358 358 358 358 357 356 355 353 354 356 355 355 356 356 356 355 356 357 357 357 357 357 357 357 357 357 357 356 356 356 356 356
371 369 367 367 365 363 363 363 366 366 362 362 363 363 361 359 356 351 351 348 346 348 348 347 345 346 348 348 348 348 348 347 348 348 347 349 350 348 349 347 351 351 353 357 359 357 357 357 357 357 357 356 357 358 358 358 358 357 357 354 351 351 353 355 356 357 356 356 356 356 357 357 358 357 358 358 357 357 358 358 357 357 357 356 356
372 370 366 366 365 363 363 366 366 364 363 363 364 359 359 359 353 350 347 347 348 347 348 346 346 345 347 347 347 348 346 346 347 346 346 348 348 348 349 349 350 349 350 349 353 361 357 357 357 357 357 356 356 357 357 358 357 356 356 354 353 353 352 352 355 356 355 356 356 356 356 356 356 356 357 358 358 358 358 358 358 358 358 357 357
372 371 367 367 365 365 363 364 366 363 363 363 361 359 357 350 352 352 351 348 348 348 348 348 347 346 346 346 347 348 347 347 347 346 348 348 348 346 349 351 354 351 354 350 353 354 359 358 356 357 357 356 356 356 356 357 356 356 355 356 356 355 353 352 353 354 354 355 357 356 356 357 356 356 356 356 357 358 358 358 358 358 358 358 358
371 369 367 365 364 362 363 364 364 363 361 361 359 356 354 352 351 354 352 352 348 348 346 346 345 345 346 345 347 345 346 346 348 348 346 346 347 348 348 349 352 354 354 355 350 353 356 359 358 357 357 357 356 355 356 356 357 355 356 356 355 355 355 353 353 353 354 354 356 356 356 356 356 356 355 355 356 356 358 358 358 358 358 358 358
370 368 367 365 364 364 363 363 363 361 361 358 353 351 353 353 353 352 354 352 350 349 348 347 345 345 344 345 347 349 348 347 348 345 345 345 345 347 344 347 348 352 359 361 357 360 360 363 361 362 361 357 355 356 355 354 354 355 356 356 356 355 356 356 353 353 354 354 354 355 355 356 355 354 356 355 355 354 354 355 358 358 358 358 358
369 368 368 366 364 362 360 360 361 361 356 350 348 348 350 350 351 351 350 349 350 348 348 346 345 345 344 345 346 347 347 346 346 345 346 346 345 345 343 345 347 348 349 352 357 357 361 362 362 361 359 353 354 354 353 352 352 353 354 355 355 356 356 356 356 354 353 353 353 354 355 355 354 355 355 355 356 355 354 353 354 356 358 358 358
369 368 367 364 364 361 362 362 359 353 352 350 351 351 351 351 351 352 349 348 347 348 347 347 344 341 344 343 344 346 346 346 344 344 343 342 342 341 342 344 345 345 347 349 349 350 353 355 355 357 359 359 358 353 352 351 352 352 351 352 353 354 354 353 352 352 352 352 352 352 354 353 351 352 353 354 355 354 354 354 354 355 357 358 358
366 368 368 365 363 361 361 356 355 352 353 353 352 351 352 351 351 348 350 346 346 345 347 345 340 337 333 334 339 342 345 343 340 340 340 339 339 341 342 339 338 342 343 345 346 347 348 350 353 352 356 356 356 356 358 356 354 350 351 351 352 354 352 351 350 351 351 352 353 353 353 351 351 351 352 352 352 353 353 354 354 355 356 357 358
368 366 360 359 359 357 356 356 355 354 353 352 351 351 351 350 349 347 345 347 344 348 347 346 337 340 340 333 330 330 340 339 338 339 336 336 336 334 337 335 337 342 343 341 341 345 345 348 350 351 352 353 352 353 354 351 352 350 349 350 350 352 353 353 352 350 350 351 353 353 353 353 351 351 350 350 350 352 354 354 355 354 354 356 357
360 360 360 360 359 357 355 354 356 356 353 350 351 350 351 350 348 348 346 340 338 343 348 347 344 339 331 330 328 324 324 330 334 336 336 333 332 332 334 334 334 340 339 336 336 343 344 345 348 349 350 351 351 350 349 350 348 348 349 347 346 346 348 351 353 351 350 351 351 352 352 351 352 353 352 351 351 353 354 355 355 355 355 355 356
361 361 359 360 359 357 355 355 354 353 353 351 348 348 350 349 348 348 346 341 338 341 345 345 345 345 337 333 331 329 326 329 328 332 333 331 330 331 332 332 334 338 337 338 342 341 339 341 344 345 346 346 345 345 347 347 349 350 348 344 343 342 342 345 347 349 350 350 349 349 350 351 352 352 352 352 352 352 352 352 354 354 355 355 356
361 361 360 358 358 357 357 355 354 352 352 349 350 349 349 348 348 347 345 346 345 340 339 345 343 345 345 342 338 332 329 333 330 328 332 331 333 331 332 330 335 335 337 337 337 337 337 337 340 340 340 341 341 343 341 340 344 344 341 342 340 338 338 340 342 345 346 347 348 349 349 349 348 349 351 352 351 350 351 351 352 354 354 355 356
360 361 359 359 359 358 357 356 354 353 353 351 348 347 346 349 348 347 346 346 344 340 339 338 343 344 344 343 342 342 339 334 329 329 326 329 328 328 328 331 330 331 332 333 333 334 335 337 336 337 338 338 339 338 340 339 339 341 338 339 338 337 336 337 339 340 340 341 342 343 345 347 349 350 350 351 352 352 352 351 350 351 353 354 355
359 360 360 359 359 357 357 355 354 351 349 348 347 347 350 349 350 349 349 347 345 341 340 339 337 338 343 342 341 341 341 339 337 332 326 325 327 327 329 329 331 329 329 330 330 333 337 335 336 335 335 335 335 335 338 338 339 340 337 337 337 336 335 335 337 338 337 338 338 339 340 341 343 344 346 349 350 350 350 351 351 351 352 354 354
362 360 360 359 359 357 357 356 353 348 349 346 345 347 349 348 349 348 347 346 346 345 343 341 341 336 340 340 339 338 337 337 337 337 328 325 323 323 326 330 330 331 331 331 333 336 335 335 335 334 335 336 336 334 334 336 336 339 334 336 336 336 334 334 335 337 336 336 337 337 337 338 339 341 342 343 345 348 349 350 351 352 352 353 354
359 359 359 358 358 358 355 354 351 343 344 344 346 348 348 349 348 347 347 346 346 345 343 342 342 341 340 340 337 337 336 335 334 332 333 330 323 324 327 328 327 330 334 331 333 334 336 336 336 336 335 335 335 334 335 335 336 335 335 335 335 335 335 334 334 335 335 334 334 335 336 336 337 338 339 340 341 343 345 348 350 350 352 353 353
356 357 358 358 357 356 351 349 348 345 346 346 346 344 343 345 346 348 347 345 344 344 344 344 343 342 341 340 338 336 335 332 333 333 331 330 328 327 326 327 328 328 334 335 336 335 336 337 336 336 337 337 336 336 335 334 334 336 333 334 335 335 335 334 333 334 333 333 333 333 334 335 335 336 337 338 338 340 341 343 345 348 351 352 352
357 355 356 354 355 352 352 349 348 347 346 347 346 344 343 344 345 347 346 346 346 345 344 342 342 342 340 338 337 338 337 334 335 335 333 331 331 329 328 332 332 331 332 338 339 335 335 336 335 337 336 335 336 338 337 338 338 335 336 335 336 336 336 334 334 333 333 333 332 333 333 334 334 334 335 335 336 337 338 339 340 343 346 348 351
355 352 352 352 353 353 351 347 348 348 348 347 346 347 346 345 345 345 345 345 343 344 342 341 341 341 338 340 337 338 337 338 337 336 335 336 334 330 330 331 328 329 333 333 333 335 336 335 337 337 337 339 338 339 340 339 338 340 334 337 341 338 338 336 334 333 333 332 332 332 333 333 333 333 332 332 333 335 336 337 338 339 341 342 345
354 354 353 353 353 353 352 349 350 350 349 348 347 347 347 345 346 345 344 345 345 344 343 341 342 342 342 339 338 337 336 338 338 337 336 334 332 331 331 331 330 328 331 332 335 332 334 335 337 339 338 339 338 337 339 338 339 341 336 334 336 338 338 337 336 335 334 333 332 332 332 333 332 332 331 331 332 332 333 334 335 336 338 338 340
355 357 355 353 352 352 351 348 347 348 348 347 345 346 347 347 347 347 345 345 345 343 342 340 340 340 340 340 339 339 338 339 338 337 337 336 334 333 332 328 327 328 327 330 332 331 329 335 336 335 338 339 339 339 339 339 339 338 335 338 339 339 337 337 336 336 335 334 333 332 333 333 332 331 331 331 331 331 332 332 333 334 335 335 336
358 356 353 352 351 349 348 347 348 347 347 347 346 345 346 345 346 346 345 344 344 344 343 342 340 341 340 341 340 337 339 338 339 338 339 340 337 336 334 331 327 324 329 327 327 328 331 330 334 337 338 338 339 339 339 337 338 340 337 340 340 340 339 337 336 335 334 333 333 333 333 332 331 331 330 331 330 330 331 331 331 331 332 333 333
355 354 353 352 350 347 347 346 347 347 346 346 345 345 346 344 344 345 344 343 344 344 342 341 342 338 339 339 338 339 339 342 342 341 343 344 343 341 340 334 331 327 325 324 327 327 330 331 328 333 338 339 339 340 339 339 338 338 338 338 338 340 337 335 335 333 333 333 333 333 333 332 332 331 331 330 330 330 330 330 330 331 331 331 332
354 352 351 349 348 347 347 347 347 347 346 345 346 345 345 343 343 344 344 345 344 344 344 342 342 341 339 339 339 338 340 339 339 340 343 345 345 344 341 340 341 330 328 324 325 330 330 333 331 330 336 337 337 337 337 338 339 338 339 340 338 339 335 334 334 334 333 332 331 331 331 330 330 330 330 329 329 329 329 329 330 330 330 331 331
354 351 350 348 347 346 347 347 346 346 346 345 346 345 345 344 343 341 344 344 343 341 343 342 341 340 339 338 339 337 340 339 340 339 340 341 342 344 344 344 342 339 332 328 323 329 333 329 332 334 334 337 336 336 336 337 338 337 339 340 340 338 338 336 333 333 332 332 331 330 328 327 328 328 328 328 328 329 329 329 329 330 330 330 331
352 351 350 347 346 346 345 345 345 345 345 343 343 344 344 344 342 341 341 343 341 340 339 339 338 339 339 338 339 338 339 339 338 338 338 340 340 338 339 339 340 340 336 331 326 326 331 330 332 334 335 336 337 336 337 338 338 340 340 340 342 340 340 340 337 334 332 331 330 329 327 326 326 327 327 328 328 329 329 329 329 329 330 330 330
351 350 348 346 347 347 346 345 345 345 345 345 344 344 344 344 343 343 343 342 341 340 340 339 338 339 339 338 338 339 340 338 338 337 335 336 338 338 340 340 338 337 335 331 327 326 330 333 332 332 334 336 334 337 336 336 336 337 338 339 340 339 339 339 339 336 333 330 329 328 327 326 326 326 326 327 327 328 329 329 329 329 329 329 329
351 348 348 346 348 348 345 346 346 345 345 346 343 343 343 343 343 343 342 342 341 340 339 339 339 339 339 338 337 338 339 338 338 336 335 334 335 333 333 334 333 333 335 332 329 326 325 330 330 334 333 334 331 336 334 333 334 337 337 338 338 338 337 338 338 338 334 331 328 326 326 326 325 325 325 326 326 326 327 327 327 326 326 326 326
351 348 348 347 349 350 347 345 347 346 346 346 344 342 343 344 343 341 341 341 340 338 337 338 338 339 338 337 337 337 337 337 337 336 336 336 335 335 335 335 334 334 335 335 333 329 327 327 331 330 331 333 332 333 335 335 336 336 335 335 335 336 337 337 337 338 334 332 328 326 325 325 325 325 325 325 325 324 324 324 324 324 323 323 323
347 346 349 347 350 348 345 346 347 346 345 344 342 342 343 343 342 341 341 340 339 338 338 338 338 338 337 336 336 336 337 336 336 336 336 337 337 337 336 337 337 337 338 338 336 334 331 327 331 330 331 331 332 334 334 335 333 333 333 334 335 334 335 336 336 335 332 329 328 327 326 325 324 324 323 323 322 322 321 320 320 321 321 321 321
346 348 350 351 350 348 345 345 345 345 343 343 342 342 343 343 343 341 341 341 339 339 339 340 339 339 337 336 336 336 336 335 335 334 336 337 338 337 336 336 334 335 335 336 336 337 335 332 330 332 332 332 333 334 335 332 332 332 333 332 332 332 333 333 333 333 331 329 329 328 326 325 325 324 324 323 323 322 321 320 320 320 319 319 319
346 346 348 346 345 346 346 345 343 342 342 342 343 342 342 343 343 342 341 341 339 340 340 339 339 339 338 338 337 337 336 335 334 334 337 336 338 338 338 338 338 338 336 335 336 336 335 333 334 330 330 327 329 332 334 334 330 329 330 331 332 332 332 331 331 331 332 332 332 331 328 328 328 326 324 324 323 322 321 320 320 319 318 317 315
344 343 345 345 345 344 343 344 342 341 341 341 343 345 344 344 344 344 341 340 340 340 340 338 337 337 338 338 339 338 337 336 335 335 336 337 337 338 338 337 337 336 334 334 334 334 333 333 334 330 326 328 329 327 332 335 333 331 328 326 327 330 331 330 329 330 331 329 330 329 329 328 327 327 324 323 323 323 322 321 320 318 318 316 315
342 341 343 342 342 341 341 342 342 342 341 341 344 346 345 345 344 343 343 341 340 339 340 339 339 337 337 337 335 335 336 337 338 338 339 338 339 339 339 338 336 334 333 332 333 333 332 332 328 324 326 327 329 331 332 334 330 328 328 326 324 325 327 330 331 329 330 330 329 328 328 327 327 327 324 324 324 323 322 323 323 322 320 318 316
341 342 344 342 340 340 340 341 341 341 340 340 343 344 345 346 344 342 342 342 341 339 339 338 339 339 339 338 336 335 337 339 343 344 343 341 341 336 337 337 335 333 332 331 331 332 332 331 331 331 327 326 326 326 326 327 325 324 328 329 327 328 328 326 329 331 330 328 329 327 327 329 327 327 328 329 330 329 327 327 328 328 324 319 318
346 345 344 341 338 338 338 338 338 339 339 341 338 331 336 343 343 343 342 343 342 341 339 339 339 339 339 339 339 341 345 343 344 341 335 332 331 335 337 336 335 333 332 330 329 329 329 327 326 326 326 323 323 326 325 326 329 329 327 327 325 326 326 325 327 329 330 329 326 325 327 329 327 327 328 327 330 331 330 331 331 327 325 322 321
344 343 342 338 337 338 337 336 335 335 338 340 330 327 329 331 341 342 342 343 344 342 340 340 339 339 340 340 343 342 346 342 342 336 333 330 330 328 326 326 330 334 332 329 328 329 327 327 326 326 325 326 327 327 326 327 327 326 325 327 325 324 323 320 319 326 332 329 326 324 324 329 329 326 327 328 328 329 330 329 327 326 323 322 321
343 342 339 340 340 340 338 337 335 336 339 331 326 326 327 326 330 342 341 341 340 339 339 339 339 339 339 339 338 342 345 345 344 344 339 332 329 329 327 326 325 325 325 333 332 329 329 327 326 325 326 325 327 328 326 325 325 327 329 328 325 323 322 321 321 320 327 329 324 322 322 328 329 326 325 326 327 328 327 325 323 324 322 321 321
342 340 340 340 340 339 339 338 335 337 338 330 325 324 325 325 325 331 341 342 339 338 339 340 340 342 343 342 343 340 340 340 339 339 340 342 334 328 328 327 326 325 323 322 323 333 332 330 328 326 328 328 325 327 329 328 330 326 326 324 324 324 323 321 320 321 324 327 324 321 320 325 326 324 323 325 326 328 326 324 323 322 321 320 320
339 338 339 340 339 339 339 339 339 340 341 330 324 322 322 322 324 328 342 343 341 338 339 340 342 345 344 338 335 334 337 340 340 342 341 340 341 342 340 339 336 333 329 322 321 320 326 332 331 329 331 333 328 328 330 330 327 324 322 322 324 322 322 321 322 323 324 326 322 321 319 321 324 323 321 324 327 327 327 324 321 320 320 319 319
337 337 338 337 339 340 340 340 340 340 340 327 321 320 319 319 321 326 341 343 342 341 341 343 346 346 343 342 339 339 338 340 341 339 343 342 341 338 335 333 333 332 332 330 331 333 333 331 332 331 330 329 329 329 329 329 328 327 326 324 323 322 322 323 323 323 323 326 325 322 316 320 323 320 321 323 326 325 326 323 321 320 319 318 318
342 340 339 337 337 339 341 341 340 340 340 324 321 319 318 317 321 335 339 341 341 341 342 345 345 344 344 344 342 340 340 341 335 329 332 340 336 334 332 332 332 331 330 331 326 328 330 330 331 329 328 327 318 324 324 323 324 326 325 325 324 323 321 318 317 318 318 322 325 321 319 319 322 319 320 324 325 323 325 325 320 319 318 318 319
335 336 336 337 338 339 340 340 340 341 341 328 318 317 316 316 322 338 340 341 341 340 342 343 343 343 342 341 340 339 339 339 328 319 321 326 332 331 331 330 330 329 328 330 325 320 320 318 315 315 314 313 314 312 311 311 319 322 321 319 318 319 317 314 314 315 316 318 320 321 318 316 320 320 320 323 323 322 321 322 324 321 320 318 318
331 331 332 333 335 338 338 339 339 341 340 329 315 314 314 315 326 340 340 338 339 341 341 340 340 341 338 339 338 338 337 339 316 318 318 325 330 330 330 328 327 327 327 327 327 330 319 315 315 315 315 315 315 313 313 312 312 313 322 316 319 318 315 315 312 314 315 317 318 321 318 317 319 321 320 321 321 321 321 322 323 323 322 320 319
333 334 333 333 334 335 336 337 337 338 339 328 313 314 313 313 328 340 339 340 340 338 337 337 338 338 336 336 336 334 335 328 312 316 315 322 328 329 329 328 325 325 326 327 325 324 324 324 326 327 326 322 328 330 328 320 316 319 325 323 322 319 316 315 314 314 312 314 320 325 317 317 319 320 319 316 314 318 320 321 322 324 324 326 325
Wind_Speed
3 3 2 3 3 3 3 2 2 2 2 3 2 3 3 3 3 4 4 4 4 4 4 5 4 4 4 4 4 4 3 4 3 3 4 3 3 7 9 6 7 7 10 11 12 13 13 14 14 14 14 14 13 13 14 13 13 13 13 13 13 13 13 13 13 13 13 13 13 13 14 14 13 12 12 12 11 11 11 11 11 11 10 10 10
3 3 3 3 3 3 3 3 3 2 3 3 2 3 3 3 3 3 4 4 4 4 4 4 5 3 3 4 4 5 3 3 3 3 2 3 2 5 5 6 6 8 9 10 12 12 12 13 15 16 15 15 15 13 12 13 13 12 13 13 14 14 14 13 13 13 13 13 13 13 13 14 14 13 13 13 12 12 12 12 12 11 11 11 11
3 3 3 3 3 3 4 3 4 3 3 3 2 3 3 3 3 3 3 3 4 3 4 4 3 3 2 4 4 4 4 4 4 4 4 3 1 2 7 7 6 8 9 10 10 10 11 13 14 16 17 17 16 15 13 13 13 12 12 12 13 14 14 14 14 14 13 13 13 13 13 13 14 14 14 14 13 13 13 13 13 12 12 12 11
3 4 4 4 4 4 4 3 4 3 3 4 3 3 4 3 3 4 4 4 3 3 3 4 3 3 3 3 3 4 4 4 5 4 3 3 3 3 3 5 8 7 9 9 10 11 11 12 13 15 16 16 17 17 16 15 15 14 12 11 11 11 12 13 14 14 14 14 14 13 13 14 14 14 14 14 14 14 14 14 13 13 13 12 12
3 4 5 5 4 4 5 4 3 3 4 3 3 3 3 3 4 3 3 3 4 3 3 4 3 4 5 4 4 3 3 4 4 4 3 3 4 3 4 4 5 10 11 10 10 11 12 13 13 14 14 15 15 15 16 15 15 14 13 13 12 10 10 12 14 15 15 15 15 14 15 15 15 15 15 15 14 14 14 14 14 14 14 13 13
4 4 4 5 5 4 4 3 3 3 3 2 3 2 3 3 4 3 3 4 4 3 3 4 4 4 4 4 4 3 4 4 4 4 3 4 3 3 4 4 4 5 6 11 11 11 12 13 14 14 14 14 14 14 15 15 15 14 14 13 11 11 10 11 13 14 15 15 16 16 16 16 16 16 15 15 15 15 15 15 15 15 14 14 14
4 4 5 5 5 5 4 4 3 3 3 2 3 3 3 3 2 4 4 3 4 3 4 5 4 4 4 4 4 4 3 4 3 4 3 4 4 3 3 4 4 4 5 5 11 12 11 12 13 13 12 12 12 13 14 14 14 14 14 10 8 10 14 16 15 13 11 14 16 16 17 17 17 16 16 16 16 15 15 15 15 15 14 14 14
4 4 4 5 4 4 4 2 2 3 3 2 3 4 2 3 4 4 3 4 4 4 4 4 5 5 4 4 4 4 3 2 3 3 3 3 2 2 3 3 3 4 3 5 5 8 13 11 11 11 10 10 10 11 12 12 13 13 12 9 11 17 19 16 13 12 13 14 15 15 16 17 17 17 17 17 17 16 16 16 15 15 15 14 15
4 4 4 4 4 3 3 2 3 2 1 2 3 2 2 3 3 3 3 3 4 5 5 4 4 4 4 4 4 3 3 3 3 2 1 2 2 1 1 1 2 4 4 6 4 3 12 11 10 10 9 8 8 8 8 10 11 10 11 14 17 16 14 15 16 16 14 14 15 16 16 14 15 16 15 17 17 15 15 16 16 15 15 15 14
4 4 4 4 3 4 3 2 3 2 2 2 2 2 3 3 3 3 3 3 4 4 4 4 4 4 4 3 2 2 1 2 2 2 1 1 0 2 2 2 2 2 3 4 4 4 2 8 9 9 9 8 8 8 7 7 8 8 11 14 15 15 16 20 19 17 17 16 14 14 15 16 15 14 15 15 16 15 15 15 15 15 15 15 14
3 4 4 3 4 3 4 3 3 2 2 3 2 2 2 2 4 4 3 3 3 3 4 4 5 4 4 2 1 1 1 2 2 2 3 3 4 4 1 2 3 3 3 3 1 0 2 1 3 4 6 9 4 2 2 3 4 6 9 11 13 16 18 18 18 17 17 17 16 15 15 15 14 15 15 16 16 16 16 16 15 15 16 15 15
3 2 3 3 3 4 2 3 3 3 3 3 2 2 1 3 3 3 4 3 3 3 3 4 4 4 2 1 1 2 1 1 1 1 1 2 3 4 5 3 3 3 4 3 4 4 3 3 3 2 3 6 5 4 3 4 3 3 4 5 7 10 15 16 16 16 16 15 15 16 16 15 13 14 15 17 17 15 15 15 18 16 16 15 15
3 3 3 3 3 3 3 4 3 3 2 2 1 1 1 2 3 3 3 3 2 2 0 3 3 2 1 2 2 2 3 1 1 1 1 1 2 2 3 4 4 4 3 3 4 4 3 3 3 2 3 3 4 8 6 3 2 3 4 6 7 6 6 8 10 12 13 16 19 20 18 16 14 15 14 15 16 16 15 16 17 17 17 16 16
4 5 4 5 5 4 4 4 4 3 2 1 1 1 2 3 2 3 2 2 2 2 2 3 3 2 3 1 2 3 1 1 1 2 1 2 2 2 2 4 5 5 5 3 2 3 3 3 4 4 4 3 3 1 1 3 6 7 6 6 6 7 6 5 5 6 12 15 17 18 18 17 14 16 18 17 15 15 16 16 16 17 17 17 17
6 6 4 4 5 5 4 4 4 2 2 2 2 3 3 3 3 2 1 2 2 0 1 3 4 2 0 5 2 3 4 2 2 2 1 2 2 4 4 5 5 4 4 3 4 4 4 5 5 5 5 4 4 3 1 3 6 6 5 7 10 9 9 5 1 3 5 8 11 15 17 17 18 18 19 19 17 17 16 17 17 17 18 18 18
6 5 4 4 4 4 4 4 3 2 2 2 2 3 3 3 3 2 2 3 2 1 0 0 3 2 2 2 2 4 3 3 2 0 1 3 3 4 3 3 6 5 4 5 5 5 4 5 4 4 4 4 4 4 3 3 4 3 9 12 11 10 9 8 6 2 2 4 5 7 11 14 13 14 17 18 17 19 17 16 16 17 19 19 18
5 5 4 5 5 4 4 3 3 3 2 2 3 3 3 3 2 2 2 2 2 0 1 1 1 2 2 3 3 5 1 2 1 2 3 3 4 5 4 3 4 4 3 4 4 4 4 5 4 4 3 4 4 4 4 5 4 4 6 12 10 10 10 9 9 9 8 5 3 5 7 7 11 15 18 18 18 20 20 17 15 16 18 19 18
5 5 5 5 6 6 5 4 4 3 2 2 2 2 3 3 2 2 1 1 2 2 1 1 1 1 1 2 4 5 3 3 5 3 2 1 5 2 2 3 3 3 2 2 3 3 3 4 4 3 4 4 4 4 4 5 5 5 6 7 10 10 10 9 9 10 10 11 10 7 5 5 6 8 12 15 18 19 20 20 19 17 18 18 19
6 6 6 6 6 6 6 5 4 3 3 2 3 4 2 1 1 1 0 1 1 2 2 1 1 1 1 1 1 2 3 3 3 2 4 3 4 1 4 4 1 2 2 1 2 2 3 3 3 3 3 3 3 3 3 4 5 5 9 8 9 9 9 9 9 9 10 10 10 10 8 6 6 6 8 11 14 15 16 19 20 21 19 18 19
6 7 7 7 6 6 6 5 4 3 2 2 3 2 1 1 0 0 1 1 1 2 2 2 3 1 1 0 1 1 2 2 3 4 4 3 4 3 1 3 2 2 3 2 1 3 1 1 1 1 1 2 2 2 2 3 3 3 5 7 7 7 8 8 8 8 9 10 10 9 9 9 9 8 7 8 8 8 12 16 18 20 19 19 20
6 7 7 7 6 6 5 4 4 3 3 3 3 2 2 2 2 1 2 2 2 1 2 1 3 1 1 1 1 0 1 0 1 1 3 3 2 1 1 0 2 3 1 1 1 1 1 1 1 2 1 0 1 1 2 2 2 2 5 6 5 6 7 7 7 7 8 8 9 9 9 9 9 9 9 9 9 8 9 12 15 16 17 18 19
7 7 7 7 7 6 5 5 4 3 3 3 2 1 2 2 2 2 1 1 1 2 2 1 2 2 1 1 1 1 1 1 2 1 1 2 4 4 4 2 2 0 2 1 3 2 1 1 3 2 2 2 1 0 1 1 1 2 4 3 4 4 5 6 6 6 6 7 8 8 8 8 9 9 10 10 10 9 8 10 13 13 13 15 17
7 7 8 7 7 6 6 5 4 3 3 3 4 4 4 3 2 2 2 2 2 2 2 2 2 1 1 1 2 2 1 3 2 2 3 3 4 5 5 4 5 5 2 2 3 3 2 2 3 2 1 3 1 2 1 2 2 3 2 2 3 4 4 4 5 6 6 6 8 8 8 8 8 9 9 10 10 10 10 11 12 13 14 14 14
7 6 7 8 7 7 6 5 5 5 5 4 4 3 3 2 2 2 2 2 2 2 2 2 3 2 3 3 3 3 1 2 2 2 3 4 4 5 5 4 5 4 4 3 3 3 3 3 4 3 3 3 3 2 2 3 2 7 3 1 4 5 5 5 5 6 6 7 7 8 8 8 9 9 9 10 10 11 11 11 12 13 14 15 15
7 7 8 8 7 7 6 6 5 5 4 4 3 3 3 3 3 3 3 3 3 3 3 4 3 3 2 2 2 3 2 2 3 4 3 3 4 5 6 6 7 7 5 6 6 5 5 6 4 3 3 4 4 4 4 4 5 7 2 5 4 6 7 6 6 7 7 7 8 9 9 9 9 9 9 10 11 11 12 12 12 13 14 15 16
8 8 7 8 7 7 7 7 6 6 5 5 4 4 4 4 4 4 5 4 4 4 4 4 3 4 3 3 4 3 4 3 4 4 5 5 5 6 7 7 8 8 6 6 3 4 5 4 4 4 5 5 5 5 5 6 6 9 6 6 8 9 8 7 7 8 8 9 9 10 10 10 10 10 10 11 11 12 12 13 13 14 14 15 16
8 7 8 8 8 7 8 7 7 7 6 5 5 5 5 5 4 5 5 4 4 4 4 4 4 4 4 4 4 5 4 4 4 5 5 6 6 6 6 8 9 8 9 6 6 6 7 4 5 6 6 5 5 5 6 7 7 8 6 7 8 6 9 8 8 8 8 9 10 11 11 11 11 11 12 11 11 12 13 13 14 14 14 15 15
7 8 9 9 8 8 8 8 8 8 7 6 6 6 6 6 5 5 6 4 4 5 5 5 6 6 6 5 5 5 4 5 5 5 6 6 6 6 6 7 8 10 8 9 8 8 8 8 6 4 4 6 7 7 7 8 8 6 7 8 7 7 8 10 9 9 9 9 10 11 11 11 11 12 13 13 12 13 13 14 14 15 15 15 16
8 9 9 9 8 8 8 8 8 8 8 7 7 6 6 6 6 6 6 5 5 5 5 5 5 6 6 6 6 5 6 5 5 5 6 6 6 6 6 7 6 8 9 9 7 7 7 9 8 6 6 5 5 7 8 9 10 9 9 9 9 9 9 8 9 9 10 12 12 12 11 11 11 12 13 13 13 13 14 14 15 15 16 16 16
8 8 9 10 9 9 8 8 8 8 8 8 7 7 6 5 5 5 5 5 5 4 5 5 6 5 6 6 6 6 5 5 5 5 5 6 7 6 7 6 6 7 7 9 11 8 8 7 8 9 8 8 7 8 8 9 8 9 10 10 10 9 8 5 9 11 12 13 13 13 12 12 12 12 12 12 13 13 14 15 15 16 16 17 17
9 9 9 10 9 9 8 9 8 9 8 7 7 7 6 5 5 5 6 5 5 6 5 6 6 6 6 7 6 6 6 6 6 6 6 6 6 6 6 6 6 6 7 8 10 10 7 8 8 8 9 9 9 9 9 9 9 10 10 10 10 11 9 11 12 14 15 15 14 14 13 13 13 13 12 12 12 13 14 15 16 16 17 17 17
9 10 10 10 10 10 10 9 9 9 9 8 7 7 6 6 6 6 5 6 6 7 7 6 6 6 6 7 7 7 6 6 6 6 6 5 5 6 6 6 7 6 6 8 9 12 10 10 9 9 10 9 8 9 10 9 8 8 10 10 11 12 11 10 13 16 18 16 15 15 14 14 14 14 14 14 14 14 16 16 16 16 16 17 17
10 11 11 10 10 10 9 9 9 8 7 7 7 7 7 7 6 6 6 6 6 6 6 7 7 6 7 8 8 8 7 6 5 6 5 5 5 6 6 6 7 6 7 8 10 10 10 9 9 9 9 10 9 9 10 10 9 9 9 10 11 10 10 10 10 12 14 16 16 15 15 15 15 15 15 16 16 15 17 18 18 17 17 17 17
10 10 11 10 9 9 8 8 8 8 7 7 7 7 7 7 7 6 7 8 8 7 7 7 7 6 7 8 8 8 7 6 6 6 5 6 6 6 6 6 7 7 6 8 9 9 11 10 10 9 9 9 10 9 10 10 10 9 10 10 10 10 10 10 10 11 10 10 13 14 14 15 16 16 17 17 18 18 18 18 18 18 18 18 18
11 11 11 11 9 8 7 6 6 6 6 7 7 8 8 8 8 8 7 7 8 8 8 8 8 7 8 8 8 8 6 6 6 6 6 6 6 6 7 7 7 8 8 8 9 10 11 10 10 11 10 9 9 9 10 10 9 9 11 10 10 10 9 10 10 10 12 11 10 12 14 15 16 17 18 18 19 19 20 19 19 19 19 19 18
11 11 11 11 11 12 12 11 9 8 7 8 8 9 8 8 8 8 8 8 8 8 8 8 9 8 9 9 8 8 7 6 6 6 5 6 6 6 7 7 7 8 8 8 9 10 10 11 10 10 10 10 9 9 9 9 10 10 10 10 11 11 11 11 11 12 13 12 11 13 15 16 17 18 19 19 19 19 20 20 20 20 20 19 19
12 10 8 9 9 9 9 10 10 8 8 9 9 9 8 8 8 8 8 9 9 9 9 9 9 10 10 10 9 8 7 7 7 7 6 6 6 7 7 6 7 7 8 8 9 9 10 11 10 9 10 10 10 10 9 10 9 10 10 11 12 12 11 12 12 11 13 14 18 18 17 16 17 18 19 19 20 20 21 21 22 21 21 20 21
11 9 10 9 9 9 8 9 9 10 9 10 10 10 10 9 8 8 9 10 10 10 10 10 10 10 10 10 10 9 8 8 8 7 6 7 7 7 7 7 8 8 9 10 9 9 10 11 11 11 10 11 10 10 9 9 10 10 10 11 11 11 11 12 11 11 11 11 12 12 11 12 15 16 17 18 20 21 22 22 23 22 22 23 23
13 13 12 11 9 8 8 9 10 10 11 12 11 10 9 9 9 9 10 10 10 10 10 11 11 11 11 10 10 9 9 9 9 8 7 7 6 8 8 8 8 8 9 9 9 10 11 11 10 11 11 10 10 11 10 10 11 10 11 12 12 11 11 12 12 11 11 14 16 18 16 15 19 19 19 19 19 21 22 23 23 24 25 24 24
16 16 14 11 8 9 10 9 9 9 9 10 10 10 9 9 9 10 10 10 11 11 11 11 11 11 11 11 11 10 10 9 9 8 8 7 7 8 8 7 7 9 9 9 9 9 10 10 11 12 10 10 9 10 10 10 10 10 10 11 13 12 12 12 12 12 11 12 14 15 15 16 15 16 17 19 21 23 24 23 24 25 26 26 25
13 15 13 12 10 9 9 10 10 9 10 11 9 9 9 10 10 11 11 11 11 11 12 12 12 11 11 11 11 11 10 9 7 6 6 4 6 8 9 8 9 9 9 9 9 10 9 10 10 10 11 10 11 11 11 11 12 12 11 11 12 12 13 13 12 12 12 12 12 15 15 14 16 15 16 16 15 16 18 20 20 23 25 25 25
11 11 12 12 12 12 11 11 10 10 10 9 10 13 10 9 10 10 9 10 11 11 12 12 12 11 11 11 10 12 6 4 6 7 8 8 7 8 8 8 8 9 9 10 10 9 10 11 11 11 12 12 11 12 13 13 12 12 13 12 12 13 13 14 13 11 11 12 14 15 15 13 15 17 16 16 15 15 15 14 14 15 15 15 16
12 12 12 13 13 12 12 12 13 12 11 9 13 14 14 13 10 10 10 9 10 11 11 11 11 10 9 10 10 9 8 7 7 9 10 11 11 10 11 11 8 7 9 10 10 10 10 11 11 10 11 13 12 12 13 13 13 13 12 11 13 13 13 14 14 11 8 11 12 15 17 14 14 16 16 15 15 15 16 17 18 16 17 18 18
11 12 13 13 13 12 12 13 13 12 11 11 13 14 14 14 12 10 10 10 10 10 10 10 9 9 9 7 10 7 5 5 6 6 10 13 12 11 11 11 12 12 12 10 9 10 10 11 11 11 11 12 12 12 12 13 12 11 11 12 13 13 14 13 13 13 10 13 14 15 19 11 12 14 15 14 15 16 17 19 20 21 21 21 22
12 13 13 13 12 11 11 11 12 12 11 12 14 14 14 14 14 11 9 10 11 10 10 9 9 8 7 8 4 6 7 11 9 10 10 8 12 13 13 12 12 13 14 16 15 11 9 10 10 11 11 12 13 12 12 13 13 14 13 13 13 13 13 14 14 14 15 15 17 18 18 13 11 14 17 15 15 16 18 19 19 20 20 20 22
13 13 12 12 11 11 11 11 11 11 11 11 14 15 14 14 13 11 10 10 10 10 10 10 9 8 3 3 1 7 9 10 9 10 8 9 8 7 8 9 10 12 16 16 15 15 12 9 10 10 10 9 11 12 14 13 14 13 13 13 13 14 14 15 17 17 16 14 16 16 18 17 15 16 16 15 15 17 18 20 21 21 22 22 22
15 14 12 11 10 10 10 11 11 11 10 11 13 14 13 13 13 11 8 7 7 8 8 9 8 5 4 4 4 6 9 9 6 9 8 7 6 7 9 10 10 11 10 9 8 8 8 9 10 10 11 11 11 12 11 11 12 12 11 13 15 14 15 16 16 16 15 14 16 15 20 16 15 17 16 16 16 19 19 19 21 22 23 24 24
8 8 8 9 9 10 10 10 10 11 9 12 13 12 12 13 10 6 6 6 6 6 7 6 4 5 5 5 5 6 9 9 3 5 2 4 7 8 9 10 10 10 10 5 4 4 9 10 9 10 10 11 11 13 12 11 10 10 9 10 10 11 12 14 16 16 15 13 13 14 16 17 14 16 16 15 17 19 17 17 21 24 24 25 26
9 8 9 7 6 8 9 8 9 9 9 9 13 13 12 12 9 6 5 5 5 6 6 4 4 4 4 4 6 8 8 8 7 7 6 1 6 8 9 10 9 9 9 8 8 11 10 9 11 11 12 13 15 16 17 17 12 9 10 11 11 11 13 16 17 16 16 14 12 13 14 17 14 14 16 17 18 17 17 17 17 22 22 24 25
11 10 9 9 10 9 10 8 8 11 11 8 13 13 14 14 11 6 5 5 6 5 5 5 4 2 4 8 8 7 7 4 9 7 6 2 6 8 9 10 10 10 10 9 9 5 12 13 13 14 14 14 15 17 17 18 16 10 9 12 12 12 15 15 16 17 17 16 14 12 12 14 15 14 17 18 16 15 15 14 17 18 20 21 25
9 7 7 8 10 11 10 11 11 13 12 8 12 13 12 13 10 7 6 6 6 5 5 4 3 3 4 6 8 8 4 6 8 7 4 4 6 8 8 9 10 10 9 10 10 12 10 10 9 9 10 12 11 11 11 14 18 15 11 12 12 13 15 16 17 17 18 14 10 9 12 13 14 15 16 16 15 14 10 13 14 15 16 17 18
Wind_Direction
243 247 255 259 258 255 259 260 271 281 269 259 277 276 276 293 306 301 302 299 293 286 305 303 311 305 308 299 291 279 277 295 298 297 290 299 272 139 154 194 191 194 194 198 203 207 210 207 212 217 218 222 217 209 210 218 223 224 221 223 224 223 222 220 222 220 216 212 212 210 209 211 217 222 223 225 228 231 235 235 238 241 242 244 244
240 252 248 256 264 254 254 254 269 283 276 280 290 275 279 295 307 292 293 288 287 301 307 315 294 317 320 323 307 305 316 273 274 271 285 267 264 126 131 181 184 191 200 205 211 210 207 210 212 212 218 222 226 226 218 218 221 225 226 224 223 223 223 224 227 227 226 223 220 218 217 215 214 217 221 225 227 230 235 238 238 240 243 245 247
262 266 264 259 257 261 262 270 264 272 291 286 272 291 300 304 306 300 299 296 292 302 307 299 315 294 330 315 307 306 305 300 292 260 243 258 196 218 164 180 186 191 204 210 214 216 213 214 216 216 214 220 226 230 230 227 222 223 225 227 228 227 229 227 226 229 229 231 229 227 225 224 221 218 220 222 225 228 233 238 241 241 242 244 247
265 267 270 272 266 263 259 262 275 277 281 296 298 303 305 302 295 292 295 284 289 292 297 296 309 318 309 277 305 307 309 313 286 306 309 273 263 217 226 174 174 187 204 211 216 216 218 217 221 223 223 220 220 222 228 235 234 223 226 228 228 231 226 232 232 231 232 232 232 231 231 231 229 226 224 224 224 224 227 233 239 243 244 245 245
247 259 269 264 269 268 264 252 259 268 267 270 276 272 275 270 260 268 273 287 286 289 268 285 307 330 314 346 323 316 311 293 287 271 287 289 233 235 227 215 197 176 196 210 214 217 214 218 221 222 224 228 227 224 224 228 234 236 227 229 234 234 238 232 233 234 233 234 233 233 232 233 234 233 231 229 227 227 226 226 231 237 243 246 247
241 252 262 266 256 249 262 271 258 252 260 239 262 268 272 278 283 280 288 286 301 298 306 311 317 318 325 339 310 333 317 293 299 307 287 265 303 267 252 220 228 223 192 194 210 214 215 217 221 225 227 228 228 229 227 227 232 234 236 237 244 251 252 251 246 237 234 235 235 234 234 233 233 234 234 234 232 230 229 228 228 230 235 241 246
228 251 265 270 266 254 238 226 218 247 248 237 276 270 265 270 287 290 305 292 297 317 307 315 321 318 318 315 317 326 305 306 321 305 290 310 296 277 281 267 237 239 233 220 191 208 217 216 221 226 231 234 233 232 232 232 232 235 238 226 237 259 258 247 240 243 246 239 235 233 235 235 235 234 233 232 232 233 233 233 230 230 232 235 241
219 231 250 253 255 255 246 240 209 243 260 293 255 258 270 280 281 281 282 299 313 293 296 302 309 320 329 309 316 311 303 321 310 288 341 307 301 304 293 283 269 266 265 248 228 190 199 219 229 230 230 227 231 232 232 233 237 238 240 236 222 227 235 244 252 243 242 247 242 235 234 238 240 238 234 233 233 230 231 234 234 232 231 232 234
201 212 241 247 252 255 244 217 219 240 212 230 246 278 283 264 264 283 303 295 297 300 302 307 314 325 315 316 331 316 320 335 310 339 360 306 305 283 265 305 326 313 274 273 276 219 176 204 222 230 233 237 236 235 237 240 240 243 240 234 228 227 236 244 247 246 247 249 251 247 242 233 238 244 245 247 237 231 229 230 234 236 234 232 231
190 202 214 237 249 250 262 240 232 214 219 241 253 262 251 264 268 269 285 289 293 300 309 315 326 316 322 327 334 321 352 326 356 304 316 297 289 336 336 1 351 356 318 318 317 313 259 187 209 218 224 226 224 227 238 242 250 245 237 239 245 245 239 240 241 244 247 251 255 255 250 246 238 236 238 240 247 249 235 227 231 234 236 234 233
177 197 217 226 224 210 243 212 231 207 213 218 230 258 278 274 273 278 263 274 294 305 313 315 303 307 306 348 7 347 360 9 338 2 350 357 4 316 358 10 1 349 5 346 1 272 311 317 214 226 196 209 210 273 295 289 273 265 260 254 247 242 240 242 244 244 246 250 254 260 258 250 247 242 234 239 238 236 248 249 237 233 236 236 237
189 206 239 232 239 239 218 207 220 209 211 251 265 252 308 303 287 287 277 259 247 282 285 300 302 308 309 269 147 113 36 23 12 5 1 10 25 344 345 26 13 3 2 2 10 7 2 355 314 330 67 156 135 102 71 28 12 342 328 304 282 262 246 242 243 245 250 253 258 255 254 253 250 249 246 245 243 238 237 242 253 244 236 236 238
177 226 224 211 240 248 194 202 196 195 199 235 238 351 334 291 283 271 281 281 258 239 248 289 309 279 188 208 129 172 132 98 52 63 8 36 33 17 3 356 18 356 24 12 2 4 8 352 348 347 344 8 140 141 130 178 127 47 5 336 320 301 296 281 268 262 255 246 242 250 251 249 246 247 249 246 244 245 241 237 239 245 242 238 238
194 220 204 206 209 199 190 184 179 175 212 226 248 217 215 231 248 250 218 290 288 314 15 286 241 1 330 305 146 162 49 175 273 55 40 30 69 77 56 40 13 4 3 5 22 13 9 7 359 1 357 344 340 335 138 170 122 58 30 5 357 355 337 328 287 240 237 246 250 251 252 250 247 250 253 251 253 245 243 244 242 242 243 240 239
202 202 215 212 208 196 186 172 182 180 203 222 229 224 230 217 217 269 279 220 252 19 340 306 324 14 244 258 196 226 167 208 148 130 72 91 60 64 31 43 43 21 357 0 26 19 29 24 13 7 5 354 353 355 351 58 62 66 54 42 30 16 12 16 12 223 258 264 259 255 251 244 243 246 247 249 253 257 245 243 242 240 244 245 241
210 218 211 207 197 192 176 184 186 189 232 250 242 245 218 199 206 205 257 274 230 118 63 38 332 337 263 2 335 290 185 155 163 170 95 54 64 69 66 70 70 34 28 22 29 19 31 32 23 18 11 8 360 8 1 23 62 88 72 41 35 22 15 12 2 26 211 294 321 299 270 261 264 250 248 248 251 255 254 248 246 243 241 241 240
220 216 204 192 195 191 188 191 199 217 227 238 243 239 229 213 202 220 238 305 297 325 149 288 77 325 316 265 209 210 13 79 293 128 265 171 79 95 101 98 64 53 40 40 25 18 22 48 26 35 27 21 21 14 26 31 28 26 62 45 33 26 22 8 3 6 9 7 351 317 328 291 261 252 248 244 246 255 264 268 259 253 249 245 242
212 212 205 195 194 198 200 209 214 220 225 256 247 231 226 248 182 247 216 185 321 286 258 173 324 217 287 323 337 352 352 4 267 142 257 33 150 129 99 60 86 73 61 60 49 34 32 39 40 49 36 40 37 35 36 47 37 51 32 39 32 31 25 15 9 8 13 14 15 26 344 312 305 303 283 262 253 249 250 252 257 255 250 249 247
207 205 204 197 197 198 204 215 215 215 209 228 232 241 207 203 204 203 159 121 241 292 288 246 123 245 220 312 2 11 7 322 10 309 186 120 332 279 118 111 94 128 116 66 81 53 34 28 32 24 49 37 40 39 49 63 75 84 61 32 32 28 23 20 12 15 18 16 15 12 6 348 321 303 298 282 264 256 258 260 257 257 257 252 250
214 201 204 199 200 203 209 210 213 234 221 235 255 267 355 237 243 129 164 178 213 282 306 355 292 105 49 166 124 63 13 355 355 350 343 301 174 224 153 93 150 62 1 18 38 61 32 10 15 344 14 42 18 24 36 60 46 52 53 28 23 20 20 13 9 13 13 12 13 14 6 355 345 335 319 315 312 279 271 270 263 256 254 251 250
216 207 202 204 201 207 204 206 212 231 222 239 239 205 230 245 217 208 206 192 228 252 262 283 284 89 147 118 44 266 191 114 96 300 325 314 272 141 282 88 252 141 69 305 67 151 257 152 312 301 308 358 13 4 9 40 49 53 54 26 11 5 9 6 359 2 6 1 1 1 1 355 348 340 335 331 322 315 292 277 264 264 260 258 253
209 214 206 210 208 205 200 208 222 234 235 244 241 243 231 232 229 233 228 227 191 228 255 287 292 351 360 120 206 144 242 238 233 246 226 288 302 299 280 263 264 244 191 271 12 316 307 319 251 233 284 304 300 330 9 360 57 20 33 348 357 334 344 347 344 344 350 346 346 348 348 347 344 338 335 332 328 320 304 292 287 279 269 263 261
213 204 211 209 208 206 215 217 220 203 220 229 225 230 206 201 211 194 225 243 204 223 243 249 269 271 231 216 258 253 304 308 325 302 278 264 278 293 303 335 336 313 257 331 319 296 258 246 259 251 293 264 273 274 301 329 222 112 283 262 304 304 296 315 320 322 324 325 327 332 334 333 332 331 328 326 324 321 314 307 299 295 294 290 280
218 213 206 206 197 205 214 202 202 202 202 212 228 224 240 185 190 193 206 215 232 230 246 249 254 235 257 224 220 250 208 242 256 238 257 290 299 293 294 297 284 293 315 260 253 266 263 262 250 277 258 280 278 287 279 265 187 129 281 55 254 259 268 271 292 300 302 301 305 309 312 314 316 319 318 317 316 314 313 308 304 302 298 294 293
213 215 206 208 193 199 197 202 195 201 204 209 214 221 233 215 190 202 202 208 220 231 231 238 238 263 252 256 270 281 270 249 272 284 280 275 273 282 292 313 300 298 302 312 301 305 309 303 302 255 272 270 266 251 267 269 285 137 181 294 232 233 230 240 263 276 279 284 289 295 296 299 303 307 308 309 309 309 308 306 304 303 302 301 297
215 213 201 189 186 192 195 198 197 194 200 203 213 208 209 215 202 209 206 209 223 226 240 247 252 246 248 273 253 239 253 254 257 255 264 265 273 287 303 298 299 299 293 276 238 261 269 266 257 277 280 280 281 279 260 283 286 144 198 284 282 224 212 221 243 254 262 274 281 284 287 289 293 297 301 300 301 303 302 304 303 302 301 300 299
216 196 182 184 188 191 194 199 192 197 199 201 204 207 205 213 214 210 224 205 216 229 237 248 251 254 256 256 268 272 277 279 285 286 289 296 291 294 303 304 302 302 301 302 306 270 294 264 252 275 284 284 277 271 273 276 289 287 238 266 286 236 195 225 228 235 246 263 276 277 276 280 285 288 291 292 292 294 297 297 297 297 297 297 295
184 179 181 185 191 194 195 198 193 195 199 203 206 206 203 212 214 213 219 204 220 224 240 248 248 253 264 267 268 276 275 272 275 277 277 279 284 283 284 285 297 302 304 301 300 296 301 295 298 263 257 275 283 289 288 277 276 281 231 267 275 278 230 204 219 233 251 261 263 268 268 270 274 277 279 280 284 284 286 289 291 291 291 292 292
182 180 183 187 190 195 195 198 196 200 199 199 205 211 205 213 215 217 222 221 218 231 245 252 263 265 260 253 263 268 269 273 272 274 278 275 270 273 275 284 292 292 301 302 297 298 309 317 308 310 295 263 270 288 289 286 291 289 288 287 284 274 268 201 208 228 256 268 264 259 260 263 265 265 268 273 275 277 278 280 282 283 284 284 286
187 185 185 185 187 193 196 200 198 201 204 200 202 206 206 216 221 224 229 236 237 235 239 251 255 257 262 270 263 263 267 268 270 275 267 267 270 267 274 271 276 283 294 299 301 303 303 299 296 306 314 310 298 285 283 282 276 271 279 280 281 280 283 232 227 243 254 257 257 252 253 255 256 259 264 267 269 269 272 273 274 276 279 280 281
187 184 186 188 188 188 196 198 200 203 204 208 202 204 204 218 223 228 227 231 237 239 239 241 250 254 257 260 261 263 266 272 278 278 276 267 269 275 277 274 268 270 281 287 291 295 304 300 300 301 301 298 294 292 289 288 285 282 279 281 279 286 288 271 254 247 247 246 244 245 247 251 252 254 257 260 263 264 266 267 269 270 272 274 275
184 181 187 193 190 191 191 198 198 202 203 207 206 206 209 216 229 237 233 227 232 240 247 248 248 248 252 254 257 264 267 270 273 270 263 262 272 276 276 273 270 266 269 274 277 289 298 299 300 297 290 293 296 290 292 289 286 268 277 275 276 278 273 271 251 230 233 232 232 235 243 246 249 252 256 260 259 260 264 265 264 265 265 267 269
187 184 190 194 194 196 193 193 201 200 205 210 207 210 213 217 224 240 252 245 238 240 241 247 249 250 253 261 267 269 271 271 268 270 275 282 279 276 278 277 275 276 275 278 283 288 292 294 296 295 298 298 293 289 285 285 286 288 280 277 278 279 281 280 281 265 222 218 221 228 236 243 247 250 254 260 262 258 261 264 264 262 261 263 265
184 187 190 189 191 198 200 197 201 209 210 216 217 215 220 221 228 232 237 238 241 243 246 246 248 253 260 263 265 266 262 260 255 261 268 281 286 280 273 269 276 279 272 278 279 284 288 295 293 295 291 293 293 288 289 291 293 292 290 290 287 287 285 285 287 287 281 218 221 226 230 239 247 252 254 257 260 262 261 261 262 262 260 260 260
182 192 187 186 177 182 201 192 200 211 214 220 221 225 225 225 231 236 240 242 241 242 238 241 248 255 258 259 260 257 250 240 241 258 274 278 279 281 283 284 283 283 284 277 279 281 286 286 293 295 294 296 289 289 286 288 287 286 288 288 290 291 287 285 283 286 283 272 237 230 237 242 248 255 257 257 260 264 264 262 260 260 260 259 256
185 192 187 178 174 183 182 177 181 193 209 221 223 225 226 229 231 234 240 246 247 243 246 251 252 251 255 257 257 257 251 246 252 265 272 267 268 275 277 280 275 279 283 278 269 271 283 290 283 290 296 297 292 287 285 281 283 286 286 286 281 281 286 288 286 284 288 290 275 255 248 251 253 254 258 259 258 258 259 260 258 257 258 257 255
188 175 170 170 179 178 188 186 176 183 210 222 226 228 228 229 231 235 238 241 244 245 248 251 253 258 260 258 255 252 249 251 256 259 263 267 270 273 275 279 278 281 281 276 275 270 274 279 284 283 290 289 289 284 279 282 280 278 280 284 290 292 291 290 289 284 277 265 260 254 251 253 254 251 249 252 254 254 254 255 256 255 253 253 254
174 171 176 184 186 183 183 180 183 187 200 216 221 226 230 229 227 233 238 240 243 246 248 249 252 252 253 252 250 248 247 248 256 260 264 266 266 268 277 281 285 286 286 284 280 274 273 276 276 285 287 289 290 287 286 279 283 288 286 282 279 279 284 285 284 289 293 292 294 285 273 259 247 238 239 242 246 249 250 251 252 253 251 250 251
171 183 186 182 179 173 180 186 190 191 195 210 217 217 224 230 229 232 239 240 242 246 247 250 254 253 252 249 247 248 248 247 253 259 261 266 268 277 275 281 285 289 290 290 288 281 278 277 273 283 287 283 281 286 284 282 286 286 287 290 289 290 285 284 285 285 287 289 290 289 284 278 276 274 265 251 244 244 245 247 248 247 251 252 251
182 184 180 175 170 178 184 187 196 201 204 212 211 211 216 221 226 233 236 241 245 246 248 250 253 255 252 249 246 246 245 246 252 255 260 264 270 267 273 280 289 291 293 295 291 287 284 280 283 290 288 290 287 281 280 276 279 281 284 294 295 295 294 294 291 291 288 285 289 290 291 284 275 262 250 244 243 245 249 250 247 246 249 252 252
186 184 176 171 170 185 184 188 196 204 207 211 214 209 211 216 228 236 237 241 246 250 253 253 252 252 254 254 254 256 255 250 242 263 284 316 283 275 279 281 287 292 292 291 289 288 285 285 289 291 290 288 289 290 287 285 291 296 300 297 294 294 294 293 291 289 289 287 283 289 290 291 291 290 291 292 287 276 263 245 246 243 242 245 248
175 171 172 174 183 191 191 187 194 203 211 213 201 198 206 222 227 234 240 244 249 251 253 254 254 253 253 254 254 254 260 229 206 220 234 240 238 259 273 278 285 289 288 288 286 285 288 287 288 292 292 292 296 295 293 292 293 295 294 297 296 298 298 294 291 287 293 290 291 289 287 288 290 290 287 285 284 278 275 270 274 279 277 270 264
175 169 172 181 191 194 196 192 195 204 209 211 186 187 199 212 226 239 246 247 250 251 249 251 254 254 258 262 261 252 214 218 220 221 231 229 230 232 245 262 272 275 283 282 280 284 287 289 289 287 287 288 288 291 292 294 295 299 301 300 297 299 297 297 297 300 283 289 289 292 288 289 289 285 283 280 279 276 276 279 278 271 263 260 260
174 173 181 189 193 196 200 205 203 205 210 198 181 188 198 206 214 232 243 249 252 252 252 251 253 254 253 268 270 263 259 258 267 247 226 225 228 227 232 237 241 242 247 258 272 279 283 288 290 288 288 285 288 292 293 297 302 306 302 298 297 298 296 294 295 294 301 299 294 290 288 284 278 279 280 280 277 278 280 281 274 267 265 262 260
176 185 192 192 194 197 204 207 213 212 215 185 183 190 199 205 209 218 240 249 252 254 256 257 258 257 249 252 320 343 297 274 260 253 257 232 206 216 224 226 233 237 233 230 239 256 281 278 281 284 279 284 288 291 296 299 303 300 302 298 299 297 295 293 292 292 294 299 294 288 284 283 286 284 284 278 277 283 285 280 277 273 270 265 261
186 193 196 198 196 199 204 212 219 222 220 184 179 189 198 202 206 205 238 241 247 253 258 265 265 267 1 8 245 265 283 283 284 276 258 254 258 228 226 238 257 238 222 220 224 228 238 261 273 278 279 280 286 295 295 297 297 298 299 298 299 296 295 290 290 289 289 291 285 287 281 285 287 287 281 281 283 284 284 285 282 280 281 277 271
189 194 195 192 198 204 205 211 221 224 225 186 176 183 192 198 203 206 232 236 245 248 250 253 255 247 216 200 233 256 274 276 261 263 254 261 263 268 278 286 282 289 292 278 251 235 235 250 263 270 283 286 294 303 307 305 302 301 298 295 291 289 288 286 283 280 278 269 270 274 280 289 297 291 283 287 289 288 290 285 283 283 283 279 273
179 182 186 199 205 211 211 213 227 232 231 172 175 177 184 197 186 206 224 231 243 253 253 251 244 266 255 231 229 238 247 255 174 95 31 295 278 279 281 279 279 282 284 288 94 314 292 292 287 290 297 304 302 291 288 292 294 291 287 281 279 278 279 284 284 288 287 291 278 274 281 290 294 286 288 288 291 291 288 285 288 286 283 278 272
187 192 198 203 222 231 227 217 227 241 243 175 171 175 185 177 167 209 206 219 236 246 253 264 281 289 311 318 302 289 275 270 123 123 114 301 270 277 277 277 283 286 287 294 177 207 230 228 249 260 259 263 270 271 270 265 258 271 291 289 275 276 280 288 290 291 288 290 282 279 286 292 287 287 290 292 296 291 287 285 286 287 282 276 267
195 198 201 211 219 229 231 232 234 241 244 179 166 170 182 169 180 190 192 208 218 208 228 256 254 222 240 251 236 256 269 257 130 127 139 184 265 273 274 278 283 286 287 293 298 243 198 221 232 239 246 252 258 259 259 259 256 239 259 279 284 292 289 288 290 292 295 293 287 283 282 277 287 289 294 298 294 278 281 282 285 286 281 275 265
196 190 199 215 225 229 227 224 226 232 237 179 162 167 169 163 178 190 180 200 196 227 226 218 234 265 264 261 226 229 277 100 131 131 162 221 264 266 271 278 280 286 292 304 292 293 302 297 277 265 264 254 251 260 268 244 232 226 232 259 280 282 286 290 293 297 295 287 290 292 287 287 289 295 302 304 295 284 263 273 280 285 287 286 284